Rochester, Indiana, United States (46975)
Lat: 41.06N, Lon: 86.22W
Wx Zone: INZ015
Local Info
Past Weather Observations for Today

NOTE: This archive is for the closest National Weather Service station to Rochester. Information may differ from the station used for current weather conditions.

Click here for Long-term Archive

Time Weather Temperature Dewpoint Humidity Pressure Winds Precip Visibility
19:35
Clear
66°F / 19°C 54°F / 12°C 64% 30.01 in
(1016 mb)
WNW 3.5 mph
(WNW 6 kph)
- 10SM
19:15
Clear
68°F / 20°C 54°F / 12°C 60% 30.01 in
(1016 mb)
NW 4.6 mph
(NW 7 kph)
- 10SM
18:55
Clear
70°F / 21°C 54°F / 12°C 57% 30.01 in
(1016 mb)
NW 6.9 mph
(NW 11 kph)
- 10SM
18:35
Clear
70°F / 21°C 54°F / 12°C 57% 30.01 in
(1016 mb)
NW 6.9 mph
(NW 11 kph)
- 10SM
18:15
Partly Cloudy
72°F / 22°C 55°F / 13°C 57% 30.01 in
(1016 mb)
NNW 6.9 mph
(NNW 11 kph)
- 10SM
17:55
Partly Cloudy
72°F / 22°C 54°F / 12°C 53% 30.01 in
(1016 mb)
NW 10.4 mph
(NW 17 kph)
- 10SM
17:35
Clear
73°F / 23°C 54°F / 12°C 50% 30.01 in
(1016 mb)
NW 10.4 mph
(NW 17 kph)
- 10SM
17:15
Clear
73°F / 23°C 54°F / 12°C 50% 30.01 in
(1016 mb)
NW 9.2 mph
(NW 15 kph)
- 10SM
16:55
Partly Cloudy
73°F / 23°C 54°F / 12°C 50% 30.01 in
(1016 mb)
NW 13.8 mph
(NW 22 kph)
- 10SM
16:35
Partly Cloudy
73°F / 23°C 55°F / 13°C 53% 30.01 in
(1016 mb)
NW 12.7 mph
(NW 20 kph)
- 10SM
16:15
Partly Cloudy
75°F / 24°C 54°F / 12°C 47% 30.01 in
(1016 mb)
NW 12.7 mph
(NW 20 kph)
- 10SM
15:55
Partly Cloudy
75°F / 24°C 54°F / 12°C 47% 30.01 in
(1016 mb)
NW 13.8 mph
(NW 22 kph)
- 10SM
15:35
Partly Cloudy
75°F / 24°C 55°F / 13°C 50% 30.01 in
(1016 mb)
NW 12.7 mph
(NW 20 kph)
- 10SM
15:15
Partly Cloudy
73°F / 23°C 55°F / 13°C 53% 30.01 in
(1016 mb)
WNW 12.7 mph
(WNW 20 kph)
- 10SM
14:55
Mostly Cloudy
72°F / 22°C 57°F / 14°C 61% 30.01 in
(1016 mb)
W 11.5 mph
(W 19 kph)
- 10SM
14:35
Mostly Cloudy
73°F / 23°C 57°F / 14°C 57% 30.01 in
(1016 mb)
SSW 5.8 mph
(SSW 9 kph)
- 10SM
14:15
Mostly Cloudy
72°F / 22°C 55°F / 13°C 57% 30.04 in
(1017 mb)
SSW 6.9 mph
(SSW 11 kph)
- 10SM
13:55
Partly Cloudy
73°F / 23°C 55°F / 13°C 53% 30.04 in
(1017 mb)
SSW 8.1 mph
(SSW 13 kph)
- 10SM
13:35
Partly Cloudy
73°F / 23°C 55°F / 13°C 53% 30.04 in
(1017 mb)
SSW 8.1 mph
(SSW 13 kph)
- 10SM
13:15
Partly Cloudy
72°F / 22°C 55°F / 13°C 57% 30.04 in
(1017 mb)
W 8.1 mph
(W 13 kph)
- 10SM
12:55
Partly Cloudy
70°F / 21°C 55°F / 13°C 60% 30.04 in
(1017 mb)
SSW 6.9 mph
(SSW 11 kph)
- 10SM
12:35
Clear
70°F / 21°C 55°F / 13°C 60% 30.04 in
(1017 mb)
SSW 9.2 mph
(SSW 15 kph)
- 10SM
12:15
Partly Cloudy
68°F / 20°C 55°F / 13°C 64% 30.04 in
(1017 mb)
SSW 4.6 mph
(SSW 7 kph)
- 10SM
11:55
Overcast
66°F / 19°C 54°F / 12°C 64% 30.06 in
(1018 mb)
SSW 5.8 mph
(SSW 9 kph)
- 10SM
11:35
Overcast
66°F / 19°C 54°F / 12°C 64% 30.06 in
(1018 mb)
SSW 9.2 mph
(SSW 15 kph)
- 10SM
11:15
Mostly Cloudy
66°F / 19°C 54°F / 12°C 64% 30.06 in
(1018 mb)
SSW 4.6 mph
(SSW 7 kph)
- 10SM
10:55
Mostly Cloudy
64°F / 18°C 54°F / 12°C 68% 30.06 in
(1018 mb)
SSW 5.8 mph
(SSW 9 kph)
- 10SM
10:35
Mostly Cloudy
63°F / 17°C 54°F / 12°C 73% 30.06 in
(1018 mb)
SW 3.5 mph
(SW 6 kph)
- 10SM
10:15
Overcast
63°F / 17°C 54°F / 12°C 73% 30.06 in
(1018 mb)
SSW 5.8 mph
(SSW 9 kph)
- 10SM
09:55
Overcast
63°F / 17°C 54°F / 12°C 73% 30.06 in
(1018 mb)
SSW 5.8 mph
(SSW 9 kph)
- 10SM
09:35
Overcast
63°F / 17°C 52°F / 11°C 68% 30.06 in
(1018 mb)
SSW 5.8 mph
(SSW 9 kph)
- 10SM
09:15
Overcast
61°F / 16°C 52°F / 11°C 72% 30.06 in
(1018 mb)
W 5.8 mph
(W 9 kph)
- 10SM
08:55
Overcast
59°F / 15°C 52°F / 11°C 77% 30.06 in
(1018 mb)
SSW 4.6 mph
(SSW 7 kph)
- 10SM
08:35
Overcast
55°F / 13°C 52°F / 11°C 88% 30.06 in
(1018 mb)
SSW 3.5 mph
(SSW 6 kph)
- 10SM
08:15
Overcast
55°F / 13°C 52°F / 11°C 88% 30.06 in
(1018 mb)
SSW 3.5 mph
(SSW 6 kph)
- 10SM
07:55
Partly Cloudy
54°F / 12°C 52°F / 11°C 94% 30.06 in
(1018 mb)
SSW 4.6 mph
(SSW 7 kph)
- 10SM
07:35
Clear
54°F / 12°C 52°F / 11°C 94% 30.06 in
(1018 mb)
SSW 4.6 mph
(SSW 7 kph)
- 10SM
07:15
Clear
52°F / 11°C 52°F / 11°C 100% 30.06 in
(1018 mb)
Calm - 10SM
06:55
Clear
50°F / 10°C 50°F / 10°C 100% 30.06 in
(1018 mb)
Calm - 10SM
06:35
Clear
46°F / 8°C 46°F / 8°C 100% 30.06 in
(1018 mb)
Calm - 7SM
06:15
Clear
46°F / 8°C 46°F / 8°C 100% 30.06 in
(1018 mb)
Calm - 7SM
05:55
Clear
46°F / 8°C 45°F / 7°C 93% 30.06 in
(1018 mb)
Calm - 7SM
05:35
Clear
46°F / 8°C 46°F / 8°C 100% 30.06 in
(1018 mb)
Calm - 7SM
05:15
Clear
46°F / 8°C 46°F / 8°C 100% 30.04 in
(1017 mb)
Calm - 10SM
04:55
Clear
46°F / 8°C 46°F / 8°C 100% 30.04 in
(1017 mb)
Calm - 10SM
04:35
Clear
46°F / 8°C 46°F / 8°C 100% 30.04 in
(1017 mb)
Calm - 10SM
04:15
Clear
46°F / 8°C 46°F / 8°C 100% 30.04 in
(1017 mb)
Calm - 10SM
03:55
Clear
46°F / 8°C 46°F / 8°C 100% 30.04 in
(1017 mb)
Calm - 7SM
03:35
Clear
46°F / 8°C 46°F / 8°C 100% 30.04 in
(1017 mb)
Calm - 10SM
03:15
Clear
46°F / 8°C 46°F / 8°C 100% 30.04 in
(1017 mb)
Calm - 10SM
02:55
Clear
46°F / 8°C 46°F / 8°C 100% 30.04 in
(1017 mb)
Calm - 10SM
02:35
Clear
48°F / 9°C 46°F / 8°C 94% 30.04 in
(1017 mb)
Calm - 10SM
02:15
Clear
48°F / 9°C 46°F / 8°C 94% 30.04 in
(1017 mb)
Calm - 10SM
01:55
Clear
46°F / 8°C 46°F / 8°C 100% 30.04 in
(1017 mb)
Calm - 10SM
01:35
Clear
48°F / 9°C 46°F / 8°C 94% 30.04 in
(1017 mb)
Calm - 10SM
01:15
Clear
50°F / 10°C 48°F / 9°C 94% 30.04 in
(1017 mb)
W 3.5 mph
(W 6 kph)
- 10SM
00:55
Clear
48°F / 9°C 48°F / 9°C 100% 30.04 in
(1017 mb)
W 3.5 mph
(W 6 kph)
- 10SM
00:35
Clear
48°F / 9°C 46°F / 8°C 94% 30.06 in
(1018 mb)
Calm - 10SM
00:15
Clear
50°F / 10°C 46°F / 8°C 88% 30.06 in
(1018 mb)
Calm - 10SM
Time Weather Temperature Dewpoint Humidity Pressure Winds Precip Visibility


Weather for websites

WeatherForYou.com, LLC is not responsible for any damages or problems caused by this service. Current weather conditions are obtained from the closest station including government and personal stations which may have varying degrees of accuracy. Weather forecasts are derived from the NOAA NDFD. Like all things, this site belongs to Jesus Christ... He just trusts me to maintain it. If you have any questions or comments email webmaster@weatherforyou.com

Copyright © 2014, WeatherForYou.com LLC. All rights reserved.